Location: Carella
(45.8167°N, 9.2667°E)
Time: 18:53:57
(UTC+00:00)

STARLINK-1125 - Pass Details

Date: 30 March 2020
Orbit: 548 x 551 km, 53.0° (Epoch: 25 May)

Event Time Altitude Azimuth Distance (km) Brightness Sun altitude
Rises 18:05:38 0° 301° (WNW) 2,729 8.7 -3.7°
Reaches altitude 10° 18:07:54 10° 304° (NW) 1,833 7.6 -4.1°
Maximum altitude 18:12:02 64° 27° (NNE) 612 3.8 -4.8°
Drops below altitude 10° 18:16:10 10° 110° (ESE) 1,825 5.6 -5.5°
Enters shadow 18:16:52 - 111° (ESE) 2,099 5.9 -5.6°
